Weather History for Beaufort, SC

Change the Weather History Date:

Wednesday, March 6, 2013

  Actual Average (KNBC) Record (KNBC)
Temperature  
Mean Temperature 50 °F -  
Max Temperature 59 °F 67 °F 87 °F (1939)
Min Temperature 41 °F 47 °F 22 °F (1960)
Degree Days  
Heating Degree Days 15    
Moisture  
Dew Point 29 °F    
Average Humidity 50    
Maximum Humidity 82    
Minimum Humidity 32    
Precipitation  
Precipitation 0.00 in - - ()
Sea Level Pressure  
Sea Level Pressure 29.93 in    
Wind  
Wind Speed 19 mph (WNW)    
Max Wind Speed 30 mph    
Max Gust Speed 39 mph    
Visibility 10 miles    
Events      
Averages and records for this station are not official NWS values.
T = Trace of Precipitation, MM = Missing Value Source: NWS Daily Summary

Daily Weather History Graph

Daily Weather History Graph

Search for Another Location

Airport:

Trip Planner

Search our weather history database for the weather conditions in past years. The results will help you decide how hot, cold, wet, or windy it might be!

Date:

Astronomy

Mar. 06, 2013 Rise Set
Actual Time 6:43 AM EST 6:24 PM EST
Civil Twilight 6:19 AM EST 6:48 PM EST
Nautical Twilight 5:50 AM EST 7:17 PM EST
Astronomical Twilight 5:22 AM EST 7:45 PM EST
Moon 2:37 AM EST (3/6) 1:17 PM EST (3/6)
Length of Visible Light 12h 29m
Length of Day
11h 40m
Waning Crescent, 30% of the Moon is Illuminated
Mar 6
Waning Crescent
Mar 11
New
Mar 19
First Quarter
Mar 27
Full
Apr 3
Last Quarter

Hourly Weather History & Observations

Time (EST) Temp. Windchill Dew Point Humidity Pressure Visibility Wind Dir Wind Speed Gust Speed Precip Events Conditions
12:15 AM 59.0 °F - 51.8 °F 77% 29.78 in 10.0 mi WSW 15.0 mph 24.2 mph N/A   Scattered Clouds
12:35 AM 57.2 °F - 50.0 °F 77% 29.77 in 10.0 mi WSW 16.1 mph 23.0 mph N/A   Scattered Clouds
12:55 AM 55.4 °F - 50.0 °F 82% 29.77 in 10.0 mi WSW 12.7 mph 21.9 mph N/A   Clear
1:15 AM 55.4 °F - 50.0 °F 82% 29.78 in 10.0 mi WSW 17.3 mph 25.3 mph N/A   Clear
1:55 AM 55.4 °F - 44.6 °F 67% 29.77 in 10.0 mi West 24.2 mph 28.8 mph N/A   Scattered Clouds
2:15 AM 53.6 °F - 42.8 °F 67% 29.78 in 10.0 mi West 17.3 mph 21.9 mph N/A   Mostly Cloudy
2:35 AM 51.8 °F - 41.0 °F 67% 29.79 in 10.0 mi West 23.0 mph 33.4 mph N/A   Scattered Clouds
2:55 AM 50.0 °F - 37.4 °F 62% 29.80 in 10.0 mi West 19.6 mph 34.5 mph N/A   Scattered Clouds
3:15 AM 48.2 °F - 35.6 °F 62% 29.81 in 10.0 mi West 24.2 mph 33.4 mph N/A   Clear
3:55 AM 46.4 °F 38.7 °F 32.0 °F 57% 29.84 in 10.0 mi WNW 20.7 mph 29.9 mph N/A   Overcast
4:15 AM 44.6 °F 36.1 °F 30.2 °F 57% 29.85 in 10.0 mi West 21.9 mph 34.5 mph N/A   Mostly Cloudy
4:35 AM 42.8 °F 33.8 °F 28.4 °F 57% 29.86 in 10.0 mi West 21.9 mph 36.8 mph N/A   Scattered Clouds
4:55 AM 42.8 °F 34.5 °F 28.4 °F 57% 29.86 in 10.0 mi West 18.4 mph 35.7 mph N/A   Clear
5:15 AM 42.8 °F 35.1 °F 28.4 °F 57% 29.86 in 10.0 mi West 16.1 mph 28.8 mph N/A   Clear
5:55 AM 42.8 °F 34.8 °F 26.6 °F 53% 29.86 in 10.0 mi West 17.3 mph 27.6 mph N/A   Clear
6:15 AM 41.0 °F 32.5 °F 28.4 °F 61% 29.86 in 10.0 mi West 17.3 mph 28.8 mph N/A   Clear
6:35 AM 41.0 °F 31.9 °F 28.4 °F 61% 29.87 in 10.0 mi West 19.6 mph 25.3 mph N/A   Clear
6:55 AM 41.0 °F 32.5 °F 28.4 °F 61% 29.88 in 10.0 mi West 17.3 mph 29.9 mph N/A   Clear
7:15 AM 42.8 °F 33.8 °F 28.4 °F 57% 29.89 in 10.0 mi West 21.9 mph 28.8 mph N/A   Scattered Clouds
7:35 AM 42.8 °F 33.8 °F 28.4 °F 57% 29.89 in 10.0 mi West 21.9 mph 28.8 mph N/A   Mostly Cloudy
7:55 AM 42.8 °F 33.5 °F 28.4 °F 57% 29.89 in 10.0 mi West 23.0 mph 33.4 mph N/A   Scattered Clouds
8:15 AM 42.8 °F 34.0 °F 28.4 °F 57% 29.90 in 10.0 mi West 20.7 mph 26.5 mph N/A   Mostly Cloudy
8:35 AM 42.8 °F 33.5 °F 23.0 °F 46% 29.92 in 10.0 mi West 23.0 mph 39.1 mph N/A   Mostly Cloudy
9:15 AM 42.8 °F 33.1 °F 19.4 °F 39% 29.93 in 10.0 mi WNW 25.3 mph 38.0 mph N/A   Clear
9:35 AM 44.6 °F 34.9 °F 19.4 °F 37% 29.93 in 10.0 mi WNW 28.8 mph 38.0 mph N/A   Clear
9:55 AM 44.6 °F 34.7 °F 23.0 °F 43% 29.94 in 10.0 mi West 29.9 mph 38.0 mph N/A   Clear
10:15 AM 44.6 °F 34.7 °F 21.2 °F 39% 29.94 in 10.0 mi West 29.9 mph 38.0 mph N/A   Clear
10:35 AM 46.4 °F 38.3 °F 21.2 °F 37% 29.95 in 10.0 mi WNW 23.0 mph 32.2 mph N/A   Clear
10:55 AM 46.4 °F 37.2 °F 21.2 °F 37% 29.94 in 10.0 mi WNW 29.9 mph 39.1 mph N/A   Clear
11:15 AM 46.4 °F 38.3 °F 21.2 °F 37% 29.93 in 10.0 mi WNW 23.0 mph 32.2 mph N/A   Clear
11:55 AM 50.0 °F - 23.0 °F 35% 29.93 in 10.0 mi WNW 18.4 mph 32.2 mph N/A   Clear
12:15 PM 50.0 °F - 23.0 °F 35% 29.92 in 10.0 mi West 26.5 mph 36.8 mph N/A   Clear
12:35 PM 50.0 °F - 21.2 °F 32% 29.92 in 10.0 mi WNW 24.2 mph 35.7 mph N/A   Clear
12:55 PM 50.0 °F - 23.0 °F 35% 29.91 in 10.0 mi West 19.6 mph 39.1 mph N/A   Clear
1:15 PM 51.8 °F - 24.8 °F 35% 29.91 in 10.0 mi West 19.6 mph 31.1 mph N/A   Scattered Clouds
1:55 PM 51.8 °F - 23.0 °F 33% 29.90 in 10.0 mi WNW 27.6 mph 35.7 mph N/A   Scattered Clouds
2:15 PM 51.8 °F - 23.0 °F 33% 29.90 in 10.0 mi WNW 20.7 mph 31.1 mph N/A   Scattered Clouds
2:35 PM 51.8 °F - 23.0 °F 33% 29.90 in 10.0 mi West 24.2 mph 35.7 mph N/A   Clear
2:55 PM 51.8 °F - 23.0 °F 33% 29.91 in 10.0 mi WNW 24.2 mph 38.0 mph N/A   Clear
3:15 PM 51.8 °F - 23.0 °F 33% 29.91 in 10.0 mi WNW 24.2 mph 31.1 mph N/A   Clear
3:35 PM 51.8 °F - 24.8 °F 35% 29.91 in 10.0 mi WNW 24.2 mph 33.4 mph N/A   Clear
3:55 PM 51.8 °F - 26.6 °F 38% 29.91 in 10.0 mi WNW 19.6 mph 26.5 mph N/A   Clear
4:15 PM 51.8 °F - 24.8 °F 35% 29.92 in 10.0 mi WNW 19.6 mph 31.1 mph N/A   Clear
4:35 PM 51.8 °F - 26.6 °F 38% 29.93 in 10.0 mi WNW 19.6 mph 29.9 mph N/A   Clear
4:55 PM 51.8 °F - 26.6 °F 38% 29.94 in 10.0 mi WNW 21.9 mph 32.2 mph N/A   Clear
5:15 PM 50.0 °F - 26.6 °F 40% 29.95 in 10.0 mi WNW 21.9 mph 34.5 mph N/A   Clear
5:35 PM 50.0 °F - 26.6 °F 40% 29.96 in 10.0 mi WNW 20.7 mph 28.8 mph N/A   Clear
5:55 PM 50.0 °F - 28.4 °F 43% 29.97 in 10.0 mi WNW 18.4 mph 23.0 mph N/A   Clear
6:35 PM 48.2 °F - 28.4 °F 46% 29.99 in 10.0 mi WNW 11.5 mph 24.2 mph N/A   Clear
6:55 PM 48.2 °F - 28.4 °F 46% 30.01 in 10.0 mi WNW 11.5 mph 19.6 mph N/A   Clear
7:15 PM 46.4 °F 40.4 °F 28.4 °F 50% 30.01 in 10.0 mi WNW 13.8 mph 17.3 mph N/A   Clear
7:35 PM 46.4 °F 41.5 °F 28.4 °F 50% 30.03 in 10.0 mi WNW 10.4 mph - N/A   Clear
7:55 PM 46.4 °F 41.9 °F 28.4 °F 50% 30.04 in 10.0 mi West 9.2 mph 17.3 mph N/A   Clear
8:35 PM 46.4 °F 41.5 °F 28.4 °F 50% 30.06 in 10.0 mi WNW 10.4 mph - N/A   Clear
9:15 PM 44.6 °F 40.2 °F 28.4 °F 53% 30.07 in 10.0 mi WNW 8.1 mph - N/A   Clear
9:35 PM 44.6 °F 40.2 °F 28.4 °F 53% 30.08 in 10.0 mi WNW 8.1 mph - N/A   Clear
9:55 PM 44.6 °F 40.2 °F 28.4 °F 53% 30.09 in 10.0 mi WNW 8.1 mph 16.1 mph N/A   Clear
10:15 PM 44.6 °F 39.7 °F 28.4 °F 53% 30.09 in 10.0 mi WNW 9.2 mph - N/A   Clear
10:35 PM 42.8 °F 39.3 °F 28.4 °F 57% 30.09 in 10.0 mi WNW 5.8 mph - N/A   Clear
10:55 PM 42.8 °F 37.5 °F 30.2 °F 61% 30.10 in 10.0 mi WNW 9.2 mph - N/A   Clear
11:15 PM 42.8 °F 38.0 °F 30.2 °F 61% 30.10 in 10.0 mi WNW 8.1 mph - N/A   Clear
11:35 PM 41.0 °F 35.8 °F 30.2 °F 65% 30.11 in 10.0 mi WNW 8.1 mph - N/A   Clear
11:55 PM 41.0 °F 34.3 °F 28.4 °F 61% 30.11 in 10.0 mi WNW 11.5 mph - N/A   Clear